Date,Time,Air Temperature,Dewpoint,Windchill,Heat Index,RH,3m Max Wind Speed,3m Mean Wind Speed,3m Wind Direction,Rain,Solar Radiation
,,F,F,F,F,%,MPH,MPH,deg,in,MJ/m^2
2024-03-23,20:15,49.6,35.4,49.6,49.6,57.9,9,6.2,161.2,0.0,-0.00023807
2024-03-23,20:20,49,35.8,49.0,49,60.4,7.8,5.6,154.7,0.0,-0.00024119
2024-03-23,20:25,48.8,36.2,48.8,48.8,61.6,8.5,6.8,161.9,0.0,-0.0002338
2024-03-23,20:30,48.8,36.7,48.8,48.8,62.8,9.4,6.7,162.7,0.0,-0.0002276
2024-03-23,20:35,48.4,36.6,48.4,48.4,63.6,8.8,6.8,152.7,0.0,-0.00022459
2024-03-23,20:40,48.2,36.8,48.2,48.2,64.5,8.3,5.2,150.4,0.0,-0.00023358
2024-03-23,20:45,48,36.9,48.0,48,65.1,0,0,0,0.0,-0.00022303
2024-03-23,20:50,47.7,36.7,47.7,47.7,65.5,0,0,0,0.0,-0.00022378
2024-03-23,20:55,47.7,36.6,47.7,47.7,65.3,0,0,0,0.0,-0.00021235
2024-03-23,21:00,47.7,36.5,47.7,47.7,65.0,0,0,0,0.0,-0.00022259
2024-03-23,21:05,47.5,36.4,47.5,47.5,65.2,0,0,0,0.0,-0.00022607
2024-03-23,21:10,47.5,36.3,47.5,47.5,65.0,0,0,0,0.0,-0.00021528
2024-03-23,21:15,47.5,36.4,47.5,47.5,65.3,0,0,0,0.0,-0.00022661
2024-03-23,21:20,47,36.3,47.0,47,66.1,0,0,0,0.0,-0.00022185
2024-03-23,21:25,47.1,36,47.1,47.1,65.2,0,0,0,0.0,-0.0002106
2024-03-23,21:30,46.9,36.1,46.9,46.9,65.9,0,0,0,0.0,-0.0002212
2024-03-23,21:35,46.6,35.9,46.6,46.6,66.2,0,0,0,0.0,-0.00022978
2024-03-23,21:40,46.1,35.6,46.1,46.1,66.6,0,0,0,0.0,-0.00022674
2024-03-23,21:45,46,34.6,46.0,46,64.1,0,0,0,0.0,-0.00021811
2024-03-23,21:50,46,32.9,46.0,46,60.2,0,0,0,0.0,-0.00018728
2024-03-23,21:55,47.6,26.3,47.6,47.6,43.2,0,0,0,0.0,-0.00013248
2024-03-23,22:00,50.5,23.5,50.5,50.5,34.6,9.9,6.8,198.1,0.0,-0.00011654
2024-03-23,22:05,51.9,22.5,51.9,51.9,31.5,10.5,8.3,194.1,0.0,-0.00014474
2024-03-23,22:10,52.9,20.3,52.9,52.9,27.6,12.1,9,190.7,0.0,-0.00019517
2024-03-23,22:15,53.3,20.5,53.3,53.3,27.4,11.2,9.6,194.5,0.0,-0.0002084
2024-03-23,22:20,53.4,20.4,53.4,53.4,27.3,11.5,9.2,195.3,0.0,-0.00022229
2024-03-23,22:25,53.6,19.4,53.6,53.6,25.9,14,10.1,191.9,0.0,-0.00023123
2024-03-23,22:30,53.3,20,53.3,53.3,26.9,11.9,9.5,198.6,0.0,-0.00024556
2024-03-23,22:35,53.2,19.6,53.2,53.2,26.5,11.9,8.6,197.2,0.0,-0.00025263
2024-03-23,22:40,54.1,18,54.1,54.1,24.0,15.3,11.5,190,0.0,-0.00023851
2024-03-23,22:45,54.5,18.5,54.5,54.5,24.1,16.4,12.2,186.5,0.0,-0.00024487
2024-03-23,22:50,54.1,18.2,54.1,54.1,24.1,14.9,11.2,186.9,0.0,-0.00026713
2024-03-23,22:55,54,18.4,54.0,54,24.4,15.6,11.1,188.3,0.0,-0.0002694
2024-03-23,23:00,53.9,18.3,53.9,53.9,24.4,15.3,11,193.6,0.0,-0.00027163
2024-03-23,23:05,53.6,17.7,53.6,53.6,24.0,15.6,11.1,194.5,0.0,-0.0002775
2024-03-23,23:10,53.8,17.8,53.8,53.8,24.0,16,12.6,195.2,0.0,-0.00024814
2024-03-23,23:15,54,17.4,54.0,54,23.4,20.6,12.6,193.1,0.0,-0.00026529
2024-03-23,23:20,53.4,18.1,53.4,53.4,24.7,14.9,11,196.6,0.0,-0.00028064
2024-03-23,23:25,53.4,18.2,53.4,53.4,24.8,17.6,12.3,195.8,0.0,-0.00026967
2024-03-23,23:30,53.1,18.3,53.1,53.1,25.1,16,12.6,196.5,0.0,-0.00027017
2024-03-23,23:35,52.9,17.9,52.9,52.9,24.9,17.6,12.5,196.6,0.0,-0.00027071
2024-03-23,23:40,53.5,17.9,53.5,53.5,24.3,19,14.3,196.2,0.0,-0.00024936
2024-03-23,23:45,53.2,17.9,53.2,53.2,24.6,18,13.5,199.3,0.0,-0.00026301
2024-03-23,23:50,53,17.7,53.0,53,24.6,16.9,13.1,200.5,0.0,-0.00028062
2024-03-23,23:55,52.5,17.6,52.5,52.5,24.9,16.5,12,199.4,0.0,-0.00029482
2024-03-24,00:00,52.8,17.8,52.8,52.8,24.9,15.6,12.7,199.8,0.0,-0.0002822
2024-03-24,00:05,52.4,17.7,52.4,52.4,25.2,15.6,12,204.4,0.0,-0.00030916
2024-03-24,00:10,52.2,17,52.2,52.2,24.6,15.8,11.3,201.3,0.0,-0.00032051
2024-03-24,00:15,52.1,17.1,52.1,52.1,24.8,15.3,11.4,198.9,0.0,-0.00032763
2024-03-24,00:20,51.8,17.5,51.8,51.8,25.4,13.3,9.7,201.8,0.0,-0.00034487
2024-03-24,00:25,51.2,16.9,51.2,51.2,25.4,11.7,9,196.2,0.0,-0.0003772
2024-03-24,00:30,50.9,17.6,50.9,50.9,26.5,10.8,8.3,198.7,0.0,-0.00036249
2024-03-24,00:35,50.4,17.1,50.4,50.4,26.5,12.1,7.8,201.3,0.0,-0.00038328
2024-03-24,00:40,50.3,17.1,50.3,50.3,26.5,12.6,9.1,200.5,0.0,-0.00035403
2024-03-24,00:45,50.2,17.5,50.2,50.2,27.0,12.2,8.8,203.3,0.0,-0.00035198
2024-03-24,00:50,49.6,17.2,49.6,49.6,27.2,11.7,9,206.7,0.0,-0.00035662
2024-03-24,00:55,49.6,16.9,48.7,49.6,27.0,13,10,210.9,0.0,-0.00033691
2024-03-24,01:00,49.2,17.1,49.2,49.2,27.5,12.1,9.6,215.5,0.0,-0.00034122
2024-03-24,01:05,49.1,17.1,49.1,49.1,27.7,12.8,10,212.5,0.0,-0.0003422
2024-03-24,01:10,48.9,17,48.9,48.9,27.7,13.1,10.1,216.4,0.0,-0.0003395
2024-03-24,01:15,48.8,16.2,48.8,48.8,26.9,13.3,9.8,218.3,0.0,-0.00034035
2024-03-24,01:20,48.8,16.6,48.8,48.8,27.4,12.4,9.5,217.2,0.0,-0.00034505
2024-03-24,01:25,48.5,16.2,48.5,48.5,27.2,11,8.4,222.5,0.0,-0.00034695
2024-03-24,01:30,48.4,16.3,48.4,48.4,27.5,11.3,8.2,217.9,0.0,-0.00034472
2024-03-24,01:35,48.3,15.9,48.3,48.3,27.1,13.5,8.7,217.3,0.0,-0.00034555
2024-03-24,01:40,48.4,15.5,48.4,48.4,26.5,12.1,8,206.7,0.0,-0.00033627
2024-03-24,01:45,48.2,15.8,48.2,48.2,27.1,8.8,6.6,196.1,0.0,-0.00038334
2024-03-24,01:50,48.4,15.2,48.4,48.4,26.2,12.1,7.1,186.8,0.0,-0.00037784
2024-03-24,01:55,48,15.5,48.0,48,26.9,8,5.4,172.1,0.0,-0.00040964
2024-03-24,02:00,48,15.7,48.0,48,27.1,9.2,6.1,173.1,0.0,-0.0004016
2024-03-24,02:05,47.8,15.4,47.8,47.8,27.0,7.8,5.7,181.4,0.0,-0.00040367
2024-03-24,02:10,47.7,15.3,47.7,47.7,27.0,8.3,5.5,175.3,0.0,-0.00039035
2024-03-24,02:15,48.2,15.6,48.2,48.2,26.8,8.7,6.1,186.8,0.0,-0.00037648
2024-03-24,02:20,47.9,15.9,47.9,47.9,27.4,6.5,1.9,185.3,0.0,-0.00038944
2024-03-24,02:25,47.8,16,47.8,47.8,27.7,0,0,0,0.0,-0.0003944
2024-03-24,02:30,47.8,15.9,47.8,47.8,27.6,8.7,5.1,169.4,0.0,-0.00039489
2024-03-24,02:35,47.1,16,47.1,47.1,28.4,6.9,3.8,162.2,0.0,-0.00041133
2024-03-24,02:40,47.1,16.5,47.1,47.1,29.0,8.5,5,156.2,0.0,-0.00037457
2024-03-24,02:45,46.7,16.4,46.7,46.7,29.5,6.9,4.5,161.2,0.0,-0.00041001
2024-03-24,02:50,46.9,17.1,46.9,46.9,30.1,5.8,4.5,159.1,0.0,-0.00037649
2024-03-24,02:55,46.3,17.9,46.3,46.3,31.8,8.5,5.4,192.7,0.0,-0.0003773
2024-03-24,03:00,45.5,17.1,45.5,45.5,31.6,8.3,5.7,218.6,0.0,-0.00034951
2024-03-24,03:05,46.7,17.4,46.7,46.7,30.6,9.6,7.2,202.8,0.0,-0.00029553
2024-03-24,03:10,47.9,16.5,46.1,47.9,28.2,16.4,10.1,197.1,0.0,-0.0003149
2024-03-24,03:15,48.4,17.5,47.8,48.4,28.9,18,11.1,196.2,0.0,-0.00031804
2024-03-24,03:20,48.7,17.1,48.7,48.7,28.1,15.3,10.7,202.2,0.0,-0.00033728
2024-03-24,03:25,48.5,17.4,48.5,48.5,28.7,15.3,11.3,202.7,0.0,-0.00033969
2024-03-24,03:30,48.8,16.6,46.9,48.8,27.4,17.8,13.4,211.3,0.0,-0.00032343
2024-03-24,03:35,48.8,17.2,48.1,48.8,28.1,17.8,13.2,213.4,0.0,-0.00032012
2024-03-24,03:40,48.7,17.2,47.3,48.7,28.2,21,14.5,217.2,0.0,-0.000336
2024-03-24,03:45,48.5,17.1,47.3,48.5,28.3,20.6,14.9,212.4,0.0,-0.00033641
2024-03-24,03:50,48.3,16.7,46.5,48.3,28.0,19.9,15.3,213.6,0.0,-0.00033476
2024-03-24,03:55,48.1,17,47.1,48.1,28.6,18.1,14.7,213.9,0.0,-0.00032583
2024-03-24,04:00,48,17.1,46.6,48,28.9,16.5,12.4,213.6,0.0,-0.00033822
2024-03-24,04:05,48.2,17,46.0,48.2,28.5,18.3,13.1,217.1,0.0,-0.00032876
2024-03-24,04:10,48.4,16.7,46.2,48.4,27.9,21.9,16.5,211.1,0.0,-0.00031898
2024-03-24,04:15,48.2,17.1,46.7,48.2,28.6,19.9,15.8,215.8,0.0,-0.00032338
2024-03-24,04:20,47.9,16.9,46.1,47.9,28.6,21.5,15.8,215.3,0.0,-0.00034502
2024-03-24,04:25,48.4,16.9,46.6,48.4,28.2,25.5,19.8,211.9,0.0,-0.0003158
2024-03-24,04:30,48,16.7,45.1,48,28.3,22.4,18.1,212.5,0.0,-0.00034434
2024-03-24,04:35,48,17,46.7,48,28.8,24.8,18.6,212.8,0.0,-0.00032357
2024-03-24,04:40,47.6,16.9,45.5,47.6,29.0,23.3,17,212.2,0.0,-0.00034362
2024-03-24,04:45,47.8,16.7,45.8,47.8,28.7,27.2,18.9,211.7,0.0,-0.00032204
2024-03-24,04:50,47.8,16.6,46.1,47.8,28.4,24.9,18.8,214.6,0.0,-0.00032184
2024-03-24,04:55,47.4,16.2,45.3,47.4,28.4,22.3,17,213.8,0.0,-0.00034114
2024-03-24,05:00,47.4,14.8,44.2,47.4,26.7,26.7,18,211.4,0.0,-0.00034152
2024-03-24,05:05,47.9,15,46.6,47.9,26.4,25.5,19.6,216.8,0.0,-0.00030866
2024-03-24,05:10,47.8,14.3,45.5,47.8,25.8,22.6,18.4,217.3,0.0,-0.00033706
2024-03-24,05:15,47.7,14.2,45.4,47.7,25.7,24.4,19.1,216.7,0.0,-0.00033634
2024-03-24,05:20,47.8,14.8,46.0,47.8,26.3,24.6,19.4,214.6,0.0,-0.00032836
2024-03-24,05:25,47.4,14.6,46.1,47.4,26.5,23.9,18.2,214.7,0.0,-0.00034107
2024-03-24,05:30,47.8,14.2,45.6,47.8,25.6,26.7,20.3,211.7,0.0,-0.00033319
2024-03-24,05:35,47.5,14.1,44.9,47.5,25.8,25.1,18.8,212.5,0.0,-0.00033944
2024-03-24,05:40,47.2,14.6,46.0,47.2,26.6,21.7,17.2,211.9,0.0,-0.0003369
2024-03-24,05:45,46.8,14.6,44.6,46.8,27.2,20.1,15.7,212.9,0.0,-0.00035268
2024-03-24,05:50,46.6,14.9,45.4,46.6,27.7,22.6,15.9,212.6,0.0,-0.0003409
2024-03-24,05:55,46.4,15,45.5,46.4,28.0,19.2,15.3,216,0.0,-0.00032973
2024-03-24,06:00,46,15.2,44.5,46,28.6,18.5,14.7,217.5,0.0,-0.00033484
2024-03-24,06:05,45.8,15.5,44.7,45.8,29.3,17.8,14.1,217.5,0.0,-0.00032751
2024-03-24,06:10,45.3,15.8,44.1,45.3,30.1,18,13.5,213.5,0.0,-0.00033253
2024-03-24,06:15,45,16,42.4,45,30.8,17.4,13.1,208.1,0.0,-0.00034237
2024-03-24,06:20,45,16.3,43.1,45,31.2,18.1,13.4,208.2,0.0,-0.00031966
2024-03-24,06:25,45.4,16.3,43.5,45.4,30.7,18.1,14.5,208.1,0.0,-0.00030768
2024-03-24,06:30,45.3,16.6,44.0,45.3,31.1,20.6,15.1,206.9,0.0,-0.00031351
2024-03-24,06:35,45.3,16.8,43.1,45.3,31.5,22.3,16.2,209.4,0.0,-0.000303
2024-03-24,06:40,45.3,16.8,43.1,45.3,31.5,24.6,17.2,202.6,0.0,-0.00028884
2024-03-24,06:45,45.4,17,43.0,45.4,31.8,22.8,19.3,205.3,0.0,-0.00019756
2024-03-24,06:50,45.2,16.9,42.6,45.2,31.8,23.2,18.8,205.6,0.0,0.00001441
2024-03-24,06:55,45.1,17.2,43.2,45.1,32.3,23.2,19,203.3,0.0,0.00042574
2024-03-24,07:00,44.6,16.9,41.2,44.6,32.6,21.5,16.5,201.2,0.0,0.00118406
2024-03-24,07:05,44.8,17.2,42.0,44.8,32.6,22.6,18.4,208.8,0.0,0.00385246
2024-03-24,07:10,45,17,42.2,45,32.1,23.9,20,206.4,0.0,0.008945799
2024-03-24,07:15,44.7,17.2,42.8,44.7,32.7,21.7,16.4,207.3,0.0,0.01396669
2024-03-24,07:20,44.9,17.1,41.9,44.9,32.3,23.5,18.1,206,0.0,0.01969694
2024-03-24,07:25,45.2,17,42.9,45.2,32.0,22.6,18.1,205.5,0.0,0.02508495
2024-03-24,07:30,45.5,16.9,41.9,45.5,31.4,24.4,18.7,208.7,0.0,0.0314375
2024-03-24,07:35,45.9,17.1,43.3,45.9,31.3,26.4,19.6,205.6,0.0,0.03795921
2024-03-24,07:40,46,17.2,43.6,46,31.3,24.8,18.8,198.9,0.0,0.04283722
2024-03-24,07:45,46.3,17.2,43.3,46.3,30.9,31.5,21.3,201.8,0.0,0.04790553
2024-03-24,07:50,46.4,17.3,43.7,46.4,30.9,25.6,20.3,201,0.0,0.05292932
2024-03-24,07:55,46.6,17,43.3,46.6,30.3,27.6,20.7,201.7,0.0,0.0580863
2024-03-24,08:00,46.7,16.9,44.1,46.7,30.0,28.7,21.2,202.9,0.0,0.05719414
2024-03-24,08:05,46.4,17.2,44.3,46.4,30.8,26,20,207,0.0,0.04512082
2024-03-24,08:10,46.3,17,42.7,46.3,30.7,25.5,20,206.4,0.0,0.03907377
2024-03-24,08:15,46.6,17.5,44.6,46.6,30.9,24.6,18.8,203.1,0.0,0.06156389
2024-03-24,08:20,47.7,17.7,45.6,47.7,29.9,27.4,19.7,205.5,0.0,0.08664428
2024-03-24,08:25,47.9,17.6,44.8,47.9,29.6,31.4,21.9,210.4,0.0,0.09162722
2024-03-24,08:30,47.5,17.5,44.8,47.5,29.9,32.8,25.7,203.7,0.0,0.09775745
2024-03-24,08:35,48,17.5,44.9,48,29.3,30.3,22.3,207.4,0.0,0.1080667
2024-03-24,08:40,48.3,17.5,44.5,48.3,29.0,32.1,27,204.8,0.0,0.1259703
2024-03-24,08:45,47.9,20.2,44.5,47.9,33.1,37.6,27,201.6,0.0,0.1342082
2024-03-24,08:50,45,25.3,39.9,45,45.7,35.7,28.3,204.9,0.0,0.1248515
2024-03-24,08:55,43.5,25.9,39.1,43.5,49.6,32.6,26.9,204.8,0.0,0.0936646
2024-03-24,09:00,40.9,30.8,37.1,40.9,67.0,33.7,26.3,217.5,0.0,0.09750479
2024-03-24,09:05,41.9,27.7,38.5,41.9,56.8,29.2,22.1,228.5,0.0,0.08703292
2024-03-24,09:10,43.6,25.1,38.9,43.6,47.9,29,20.3,209.7,0.0,0.1195125
2024-03-24,09:15,45,25.6,42.3,45,46.4,29,22.4,216.8,0.0,0.140273
2024-03-24,09:20,44,26.7,41.9,44,50.1,29.4,21.5,211.5,0.0,0.07116573
2024-03-24,09:25,42.1,28.1,39.1,42.1,57.3,24.9,19.6,212.9,0.0,0.07544111
2024-03-24,09:30,42.7,27.6,39.0,42.7,54.8,21.5,17.9,209.7,0.0,0.1147408
2024-03-24,09:35,42.1,28.8,39.8,42.1,59.1,20.1,15.6,213.9,0.0,0.07353836
2024-03-24,09:40,44.4,27.3,42.2,44.4,50.8,22.3,17.1,210.7,0.0,0.1600987
2024-03-24,09:45,46,25.8,42.8,46,44.9,23.9,18.2,215.2,0.0,0.1692332
2024-03-24,09:50,47.1,26.4,45.4,47.1,44.1,27.2,20,216.8,0.0,0.1807623
2024-03-24,09:55,48.2,26.1,45.6,48.2,41.9,28.1,18.7,215.6,0.0,0.1766703
2024-03-24,10:00,47.8,23.8,44.0,47.8,38.7,29.4,24.7,209.4,0.0,0.1729894
2024-03-24,10:05,46.9,25.7,44.1,46.9,43.3,32.1,25,215.6,0.0,0.1610634
2024-03-24,10:10,47.6,25.4,45.4,47.6,41.5,25.3,20.6,219.3,0.0,0.1977938
2024-03-24,10:15,48,23.8,45.7,48,38.4,31,24.6,211.3,0.0,0.2027101
2024-03-24,10:20,47.7,21.9,44.2,47.7,35.8,33.7,27.5,210.7,0.0,0.1709301
2024-03-24,10:25,49.1,20.2,46.1,49.1,31.5,31.5,25,209.9,0.0,0.2192212
2024-03-24,10:30,49.2,20.2,45.4,49.2,31.5,34.4,27.8,213.3,0.0,0.2186344
2024-03-24,10:35,48.7,20.9,44.9,48.7,33.1,36,26.9,205,0.0,0.2195221
2024-03-24,10:40,48.4,23.2,46.0,48.4,36.8,33.5,25.4,203.2,0.0,0.2265336
2024-03-24,10:45,48.1,22.7,44.0,48.1,36.6,33.9,27.1,210.9,0.0,0.2267721
2024-03-24,10:50,48.4,22.7,44.0,48.4,36.1,35.8,27.5,216.6,0.0,0.2298025
2024-03-24,10:55,47.4,22.7,43.0,47.4,37.5,39.6,32.5,211.4,0.0,0.2317568
2024-03-24,11:00,47.5,23.1,44.2,47.5,37.9,37.1,30.2,211.2,0.0,0.2403858
2024-03-24,11:05,46.6,25,41.9,46.6,42.4,41.4,32.9,216.7,0.0,0.2392088
2024-03-24,11:10,45.1,26.3,41.2,45.1,47.4,40.3,32.4,211.7,0.0,0.2198078
2024-03-24,11:15,46.8,25.3,42.4,46.8,42.7,34.2,27.3,216.8,0.0,0.2466594
2024-03-24,11:20,47.1,24.9,42.7,47.1,41.4,38.9,29.8,215.6,0.0,0.2484096
2024-03-24,11:25,47.1,25.5,42.9,47.1,42.7,41.4,32.1,214,0.0,0.2526267
2024-03-24,11:30,45.5,26.7,39.6,45.5,47.5,47.1,37.6,218.5,0.0,0.2409588
2024-03-24,11:35,42.8,30.6,37.6,42.8,61.8,45.5,33,233,0.0,0.1551509
2024-03-24,11:40,35.8,32,28.5,35.8,86,41.5,32,240.5,0.0,0.1448165
2024-03-24,11:45,36.8,31.9,30.5,36.8,82.1,32.3,24.9,240.7,0.0,0.2160018
2024-03-24,11:50,38,31.5,33.9,38,77.4,34.8,26.1,242.2,0.0,0.2583987
2024-03-24,11:55,40.5,25.7,35.1,40.5,55.3,37.4,25.8,244.8,0.0,0.2646021
2024-03-24,12:00,43.1,22.8,38.6,43.1,44.3,35.7,25.3,246.8,0.0,0.2371072
2024-03-24,12:05,44.1,22.2,41.2,44.1,41.7,31,23.8,240.2,0.0,0.2612669
2024-03-24,12:10,45.8,22,42.4,45.8,38.6,28.1,20.5,245.5,0.0,0.2723377
2024-03-24,12:15,46.1,21.3,43.1,46.1,37.1,28.5,19.9,238.8,0.0,0.262127
2024-03-24,12:20,46.1,19,44.8,46.1,33.7,28.5,22.8,238.4,0.0,0.2757016
2024-03-24,12:25,45.8,17.1,42.3,45.8,31.3,37.6,27.4,240.7,0.0,0.2804381
2024-03-24,12:30,46.6,15.8,42.2,46.6,28.8,32.3,24.9,238.6,0.0,0.2805538
2024-03-24,12:35,46.5,18.2,43.8,46.5,32.1,34.8,25.9,245.2,0.0,0.2807818
2024-03-24,12:40,47,17.6,44.0,47,30.7,29,22.6,242,0.0,0.2824448
2024-03-24,12:45,46.7,19,43.2,46.7,32.9,31.5,24.5,237.1,0.0,0.2833102
2024-03-24,12:50,46.4,20,43.3,46.4,34.8,33,24.6,238.5,0.0,0.2842595
2024-03-24,12:55,46.5,19.6,42.9,46.5,34.0,29.8,24.2,243.4,0.0,0.2845811
2024-03-24,13:00,46.5,20,42.5,46.5,34.5,33.3,25,241,0.0,0.2853625
2024-03-24,13:05,47.1,20.5,44.2,47.1,34.6,35.3,25.8,232.8,0.0,0.2862204
2024-03-24,13:10,47.3,18.6,42.9,47.3,31.5,40,28.6,234.1,0.0,0.2875542
2024-03-24,13:15,47.4,18.4,42.8,47.4,31.3,40.3,32.2,228.8,0.0,0.2875236
2024-03-24,13:20,47.7,18.1,43.8,47.7,30.4,39.6,31.5,233.7,0.0,0.2866426
2024-03-24,13:25,48.9,17.8,44.9,48.9,28.8,39.6,29.4,230.6,0.0,0.284909
2024-03-24,13:30,48.7,14.7,45.4,48.7,25.3,38,31.7,229.9,0.0,0.2837606
2024-03-24,13:35,48.7,14.2,45.2,48.7,24.8,37.1,31,231.4,0.0,0.2826398
2024-03-24,13:40,49.2,15.2,45.9,49.2,25.4,41.4,30.3,227.3,0.01,0.2825615
2024-03-24,13:45,49.6,14.7,45.8,49.6,24.4,37.4,30.6,235,0.0,0.2807814
2024-03-24,13:50,48.9,13.1,45.5,48.9,23.4,36,30.2,233.5,0.0,0.2802844
2024-03-24,13:55,49,11.4,45.6,49,21.7,41.4,28.4,228.7,0.0,0.276531
2024-03-24,14:00,49.6,12,47.0,49.6,21.7,34.6,25.5,230.9,0.0,0.2774879
2024-03-24,14:05,50.3,9.4,50.3,50.3,18.8,30.3,24.2,234.1,0.0,0.2688168
2024-03-24,14:10,50.4,9.9,50.4,50.4,19.2,34.2,23.6,239,0.0,0.2798375
2024-03-24,14:15,50,9.8,50.0,50,19.4,31,24.2,237.8,0.0,0.2730353
2024-03-24,14:20,50.6,9.6,50.6,50.6,18.8,29,23.1,234.8,0.0,0.2661713
2024-03-24,14:25,49.7,8.9,47.7,49.7,18.9,29.8,23.2,230.7,0.0,0.2536385
2024-03-24,14:30,50.1,5.9,50.1,50.1,16.2,26.7,21.5,231.2,0.0,0.2572858
2024-03-24,14:35,50.3,5.3,50.3,50.3,15.7,30.5,22.5,241.9,0.0,0.2672278
2024-03-24,14:40,50.3,5.7,50.3,50.3,15.9,33.9,22.9,242.7,0.0,0.2498575
2024-03-24,14:45,48.8,4.9,46.3,48.8,16.2,25.6,20.9,235.5,0.0,0.1357191
2024-03-24,14:50,48.4,5.7,44.9,48.4,17.1,36.4,21,240.8,0.0,0.1294129
2024-03-24,14:55,48.7,1.3,45.3,48.7,13.9,28.5,23.1,239.8,0.0,0.1515697
2024-03-24,15:00,50.4,1.6,50.4,50.4,13.2,31.9,24.8,227.9,0.0,0.2514398
2024-03-24,15:05,50.1,0,50.1,50.1,12.3,35.3,27.7,225.2,0.0,0.2658963
2024-03-24,15:10,51,1.5,51.0,51,12.8,30.8,22.3,225.7,0.0,0.2291443
2024-03-24,15:15,49.5,0.6,46.6,49.5,13,34.6,26.9,220.6,0.0,0.1983745
2024-03-24,15:20,47.7,2.1,45.3,47.7,14.9,32.1,23.2,225.7,0.0,0.1006748
2024-03-24,15:25,48.7,3.5,47.0,48.7,15.3,26.5,20.6,234.2,0.0,0.1610836
2024-03-24,15:30,50,7.3,50.0,50,17.3,27.1,18.8,247.4,0.0,0.2432765
2024-03-24,15:35,48.9,8.2,47.5,48.9,18.9,27.8,21.1,246,0.0,0.2144534
2024-03-24,15:40,47.1,3.2,44.8,47.1,16,30.6,23.5,234.5,0.0,0.09915142
2024-03-24,15:45,49.9,1,47.1,49.9,13.0,29.8,20.1,237.3,0.0,0.209951
2024-03-24,15:50,47,1.3,43.4,47,14.7,31.5,26.2,229.7,0.0,0.1293655
2024-03-24,15:55,45.3,9.8,42.3,45.3,23.1,29.6,21.3,246.1,0.0,0.04964541
2024-03-24,16:00,43.1,12.6,38.9,43.1,28.5,27.8,21.6,255.8,0.0,0.0378764
2024-03-24,16:05,42.2,12.7,40.3,42.2,29.7,26.4,19.5,241.5,0.0,0.029993
2024-03-24,16:10,43.2,12.3,40.7,43.2,28.2,19.9,15.3,252.2,0.0,0.07794759
2024-03-24,16:15,43.5,12.9,38.8,43.5,28.4,29.6,18.7,252.8,0.0,0.06620304
2024-03-24,16:20,41.8,16.6,38.5,41.8,35.8,36.4,25.8,248.8,0.0,0.09567568
2024-03-24,16:25,42.5,13.9,39.1,42.5,31.0,25.5,20.4,248.7,0.0,0.04649869
2024-03-24,16:30,42,15.9,37.4,42,34.5,28.9,22.5,240.2,0.0,0.06519786
2024-03-24,16:35,41.6,14.7,36.9,41.6,33.0,30.6,22.2,242.9,0.0,0.05430381
2024-03-24,16:40,42.2,14.4,38.3,42.2,32.1,31,25.5,245.1,0.0,0.08446354
2024-03-24,16:45,43.5,15.8,39.1,43.5,32.3,32.1,23.8,247.2,0.0,0.1325176
2024-03-24,16:50,42.8,16.1,38.2,42.8,33.6,34,25.7,245.6,0.0,0.1310669
2024-03-24,16:55,44.4,15.6,41.2,44.4,30.9,29.2,21.9,242.3,0.0,0.1378252
2024-03-24,17:00,41.8,14.5,36.5,41.8,32.6,32.1,26.1,242.1,0.0,0.06529965
2024-03-24,17:05,41,14.7,36.9,41,33.9,31.2,24.9,242.3,0.0,0.05614597
2024-03-24,17:10,42.6,14.7,38.0,42.6,31.9,31.7,24.8,246.8,0.0,0.1256381
2024-03-24,17:15,41.8,15.2,37.9,41.8,33.6,34.6,24.1,240.9,0.0,0.06905034
2024-03-24,17:20,40.4,16.3,36.0,40.4,37.2,29.9,21.6,244,0.0,0.03135296
2024-03-24,17:25,40.2,17.1,36.5,40.2,38.8,30.8,21.9,243.4,0.0,0.05653285
2024-03-24,17:30,40.7,16,36.3,40.7,36.3,25.1,21.2,236.9,0.0,0.06061112
2024-03-24,17:35,41,16,36.1,41,35.9,29.9,21.3,246.4,0.0,0.06414271
2024-03-24,17:40,41.4,16.8,36.2,41.4,36.6,29.6,22.5,239.1,0.0,0.07073072
2024-03-24,17:45,39.5,19.7,35.9,39.5,44.6,35.1,26.7,239.2,0.0,0.0415045
2024-03-24,17:50,38.6,19.9,33.9,38.6,46.6,30.5,24.4,242.9,0.0,0.03400206
2024-03-24,17:55,37.4,21.4,33.2,37.4,52.0,28.5,23.1,232.2,0.0,0.03393077
2024-03-24,18:00,37.4,20.6,33.5,37.4,50.2,25.3,20,231.1,0.0,0.02236481
2024-03-24,18:05,38.9,20.7,34.0,38.9,47.7,25.5,19,226.5,0.0,0.07219046
2024-03-24,18:10,38.7,21.6,36.3,38.7,50.0,24.6,18.9,220.6,0.0,0.05762307
2024-03-24,18:15,38.2,20.1,33.8,38.2,47.8,20.5,15.4,216,0.0,0.01418982
2024-03-24,18:20,38.9,18,34.6,38.9,42.5,21.7,15.8,231.3,0.0,0.01767198
2024-03-24,18:25,39.2,16,35.5,39.2,38.6,29,21.6,233.8,0.0,0.01928398
2024-03-24,18:30,39.3,15.5,36.8,39.3,37.6,25.5,17.9,243.5,0.0,0.03008697
2024-03-24,18:35,39.4,15.2,34.9,39.4,37.0,24.8,20.2,238.9,0.0,0.01237974
2024-03-24,18:40,39,15.1,34.6,39,37.3,23.2,18.1,242.2,0.0,0.00748497
2024-03-24,18:45,38.9,14.8,35.9,38.9,37.1,22.1,17.2,249.5,0.0,0.00584653
2024-03-24,18:50,38.9,14.1,35.3,38.9,35.9,21.4,16.5,243.6,0.0,0.00485211
2024-03-24,18:55,39,13.8,33.5,39,35.2,31.7,21.9,241.2,0.0,0.00415218
2024-03-24,19:00,38.9,13.3,33.5,38.9,34.6,31.9,25.4,238.8,0.0,0.00356752
2024-03-24,19:05,39.1,13.6,34.7,39.1,34.8,30.5,24.2,238.5,0.0,0.00309255
2024-03-24,19:10,38.9,14.1,33.4,38.9,35.8,27.6,21.6,242.2,0.0,0.00533254
2024-03-24,19:15,38.8,15.4,35.3,38.8,38.1,27.8,21.9,235.8,0.0,0.00178963
2024-03-24,19:20,38.6,16.4,35.5,38.6,40.2,27.1,21.9,237.8,0.0,0.00083858
2024-03-24,19:25,38.3,16.8,33.9,38.3,41.3,27.6,20,241.3,0.0,0.00028607
2024-03-24,19:30,38.1,16.4,34.9,38.1,40.8,32.8,20.7,234.7,0.0,-0.00003711
2024-03-24,19:35,38.1,15.2,34.4,38.1,38.7,26.4,18.6,235.8,0.0,-0.00022744
2024-03-24,19:40,38.4,15.3,34.3,38.4,38.4,27.4,20.4,245.4,0.0,-0.00029151
2024-03-24,19:45,38.4,15.2,34.1,38.4,38.3,24,19.1,242.8,0.0,-0.0003169
2024-03-24,19:50,38.3,15.8,35.0,38.3,39.5,24.4,18.3,244.6,0.0,-0.0003278
2024-03-24,19:55,38.5,13.9,31.9,38.5,36.1,36,21.8,243.3,0.0,-0.00031779
2024-03-24,20:00,38.2,12.9,32.2,38.2,35.0,35.1,27.3,239,0.0,-0.00029339
2024-03-24,20:05,38.6,11.7,32.5,38.6,32.7,35.5,27.9,239.5,0.0,-0.00029385
2024-03-24,20:10,38.8,10.8,33.6,38.8,31.2,31.7,23.2,241,0.0,-0.00031557
2024-03-24,20:15,39.1,11.4,35.8,39.1,31.5,33.9,24.2,241.4,0.0,-0.00030504
2024-03-24,20:20,39.1,11.8,35.3,39.1,32.1,30.3,21.4,237.9,0.0,-0.00032936
2024-03-24,20:25,38.6,11.3,34.1,38.6,32.2,21.9,16.2,243.1,0.0,-0.00035675
2024-03-24,20:30,39.2,11.2,34.8,39.2,31.3,24.4,19.7,239,0.0,-0.00031635
2024-03-24,20:35,39.2,10.8,35.7,39.2,30.6,25.3,20.8,244.5,0.0,-0.00032228
2024-03-24,20:40,39.4,10.7,34.7,39.4,30.4,25.5,20.4,245.3,0.0,-0.00033546
2024-03-24,20:45,39.3,10.9,35.2,39.3,30.7,27.8,19.3,245.4,0.0,-0.00034121
2024-03-24,20:50,39.1,11.2,35.6,39.1,31.4,25.6,19,243.4,0.0,-0.00033359
2024-03-24,20:55,38.7,11.5,36.2,38.7,32.3,23.9,15.8,245.2,0.0,-0.00035767
2024-03-24,21:00,38.6,11.2,35.4,38.6,31.9,19,14.9,239.7,0.0,-0.00035053
2024-03-24,21:05,38.6,10.7,34.8,38.6,31.2,19.9,15.6,242.1,0.0,-0.00033395
2024-03-24,21:10,38.4,11.3,34.6,38.4,32.2,18.7,13.6,239.9,0.0,-0.00035279
2024-03-24,21:15,38.1,12.1,35.2,38.1,33.9,20.5,14.9,239.1,0.0,-0.00033685
2024-03-24,21:20,38.1,12.8,35.7,38.1,34.9,24.8,15.9,237.1,0.0,-0.00032596
2024-03-24,21:25,38.2,12.5,34.9,38.2,34.4,24.6,17.6,240.9,0.0,-0.00033347
2024-03-24,21:30,38.3,12.9,35.6,38.3,34.9,23.7,18,243.7,0.0,-0.00033311
2024-03-24,21:35,38,13.4,35.0,38,35.9,23.3,16.5,240.8,0.0,-0.00033007
2024-03-24,21:40,37.7,13.7,34.2,37.7,36.9,17.6,13.5,241.1,0.0,-0.00035229
2024-03-24,21:45,38.1,14.3,35.6,38.1,37.4,23,17.2,247.8,0.0,-0.00032464
2024-03-24,21:50,37.7,14.4,35.0,37.7,38.1,19.9,14.1,242.9,0.0,-0.00034229
2024-03-24,21:55,37.4,14.3,33.6,37.4,38.4,18,14,240.6,0.0,-0.00033295
2024-03-24,22:00,37.2,14.8,33.8,37.2,39.6,19.8,15,241.3,0.0,-0.00032922
2024-03-24,22:05,36.8,15,33.2,36.8,40.4,18.9,13.8,239.1,0.0,-0.00033855
2024-03-24,22:10,36.7,15.2,33.8,36.7,41.1,17.4,13.7,242.5,0.0,-0.0003299
2024-03-24,22:15,36.7,15.3,33.3,36.7,41.1,21,15.4,241.7,0.0,-0.0003139
2024-03-24,22:20,36.7,15.4,33.8,36.7,41.4,21.5,16.9,240.4,0.0,-0.00030866
2024-03-24,22:25,36.7,15.6,32.2,36.7,41.6,24.2,17.1,235.9,0.0,-0.00031498
2024-03-24,22:30,36.7,16,32.8,36.7,42.5,23.2,16.8,242.6,0.0,-0.00030992
2024-03-24,22:35,36.4,16.1,32.0,36.4,43.3,21.7,17.1,236.3,0.0,-0.00030004
2024-03-24,22:40,36.2,16.4,31.9,36.2,43.9,21.7,17.2,239.3,0.0,-0.00030994
2024-03-24,22:45,36.4,16.8,32.4,36.4,44.5,25.3,19,237.8,0.0,-0.00029333
2024-03-24,22:50,36,16.8,30.7,36,45.3,22.8,17.3,239.7,0.0,-0.00030558
2024-03-24,22:55,35.8,17,31.8,35.8,46.1,22.8,16.4,237.5,0.0,-0.0003092
2024-03-24,23:00,35.4,17.2,31.6,35.4,47.1,19.9,15.7,238.2,0.0,-0.00030785
2024-03-24,23:05,35.3,17.4,31.5,35.3,47.7,18.3,15.1,237.4,0.0,-0.00030003
2024-03-24,23:10,35.1,17.6,31.2,35.1,48.5,20.1,14.9,234.8,0.0,-0.00029724
2024-03-24,23:15,34.8,17.6,30.7,34.8,49.0,19.4,15.7,231.3,0.0,-0.00028828
2024-03-24,23:20,34.3,17.7,30.9,34.3,50.4,17.1,12.6,230.2,0.0,-0.00031162
2024-03-24,23:25,34.3,18,31.5,34.3,50.8,16.9,13.3,235.2,0.0,-0.00029061
2024-03-24,23:30,34.3,18.1,30.9,34.3,51.2,16.5,13.4,235.4,0.0,-0.00030374
2024-03-24,23:35,34.3,18.2,34.3,34.3,51.4,15.8,13.1,240.4,0.0,-0.00030155
2024-03-24,23:40,34.3,18.3,31.1,34.3,51.6,16.9,13.4,240.4,0.0,-0.00030377
2024-03-24,23:45,34.2,18.6,29.9,34.2,52.3,17.2,13.7,236.6,0.0,-0.0002947
2024-03-24,23:50,34.8,18.5,31.0,34.8,51.0,23.2,17,242.1,0.0,-0.00028906
2024-03-24,23:55,34.8,18.6,30.5,34.8,51.3,21.2,15.6,241.8,0.0,-0.00029907
2024-03-25,00:00,34.9,18.5,30.1,34.9,50.8,25.1,17.8,247.1,0.0,-0.0002985